This is the latest recevied weather packets stored in our database for station/object K7YVO. If no packets are shown the sender has not sent any weather packets the latest 10 day(s).
| Time | Temp. | Humidity | Pressure | Rain* | Wind** | Luminosity | Snow |
|---|---|---|---|---|---|---|---|
| 1778131264 | 12.78° C | 81% | 1023.5 hPa | 0 mm | - | 0 W/m² | - |
| 1778130961 | 12.22° C | 82% | 1023.3 hPa | 0 mm | - | 0 W/m² | - |
| 1778130658 | 12.78° C | 81% | 1023.3 hPa | 0 mm | - | 0 W/m² | - |
| 1778130355 | 12.78° C | 82% | 1023.4 hPa | 0 mm | - | 0 W/m² | - |
| 1778130051 | 12.78° C | 82% | 1023.4 hPa | 0 mm | - | 0 W/m² | - |
| 1778129748 | 12.78° C | 82% | 1023.6 hPa | 0 mm | - | 0 W/m² | - |
| 1778129445 | 12.78° C | 81% | 1023.3 hPa | 0 mm | - | 0 W/m² | - |
| 1778129142 | 12.78° C | 81% | 1023.2 hPa | 0 mm | - | 0 W/m² | - |
| 1778128839 | 12.78° C | 81% | 1023.3 hPa | 0 mm | - | 0 W/m² | - |
| 1778128534 | 13.33° C | 81% | 1023.4 hPa | 0 mm | - | 0 W/m² | - |
| 1778128232 | 13.33° C | 81% | 1023.2 hPa | 0 mm | - | 0 W/m² | - |
| 1778127928 | 13.33° C | 81% | 1023.2 hPa | 0 mm | - | 0 W/m² | - |
| 1778127623 | 13.33° C | 81% | 1023.1 hPa | 0 mm | - | 0 W/m² | - |
| 1778127321 | 13.33° C | 81% | 1023 hPa | 0 mm | - | 0 W/m² | - |
| 1778127018 | 13.33° C | 81% | 1023 hPa | 0 mm | - | 0 W/m² | - |
| 1778126714 | 13.33° C | 81% | 1022.9 hPa | 0 mm | - | 0 W/m² | - |
| 1778126410 | 13.89° C | 81% | 1022.9 hPa | 0 mm | - | 0 W/m² | - |
| 1778126106 | 13.89° C | 81% | 1022.9 hPa | 0 mm | - | 0 W/m² | - |
| 1778125803 | 13.89° C | 81% | 1022.9 hPa | 0 mm | - | 0 W/m² | - |
| 1778125500 | 13.89° C | 81% | 1022.6 hPa | 0 mm | - | 0 W/m² | - |
| 1778125198 | 13.89° C | 81% | 1022.5 hPa | 0 mm | - | 0 W/m² | - |
| 1778124895 | 13.89° C | 80% | 1022.5 hPa | 0 mm | - | 1 W/m² | - |
| 1778124592 | 13.89° C | 80% | 1022.2 hPa | 0 mm | - | 1 W/m² | - |
| 1778124289 | 14.44° C | 80% | 1022.3 hPa | 0 mm | - | 2 W/m² | - |
| 1778123985 | 14.44° C | 79% | 1022.3 hPa | 0 mm | - | 4 W/m² | - |
* Rain latest hour (hover to see other rain measurements)
** Current wind speed in m/s (hover to see current wind gust speed)